K6OUA-11 Weather Reports


time (UTC)temp
C
wind
direction
speed
KPH
gust
KPH
rain 1hr
cm
rain 24hr
cm
rain mn
cm
humidity
%
barometer
mb
20260507052925 13 260 0.0 0.0 0.00 0.00 0.00 84
20260507052723 13 260 0.0 0.0 0.00 0.00 0.00 84
20260507052522 13 260 0.0 0.0 0.00 0.00 0.00 83
20260507052319 14 260 0.0 0.0 0.00 0.00 0.00 83
20260507052118 14 260 0.0 0.0 0.00 0.00 0.00 83
20260507051915 14 260 0.0 0.0 0.00 0.00 0.00 82
20260507051714 14 260 0.0 0.0 0.00 0.00 0.00 83
20260507051512 14 260 0.0 0.0 0.00 0.00 0.00 83
20260507051108 14 260 0.0 0.0 0.00 0.00 0.00 83
20260507050906 15 260 0.0 0.0 0.00 0.00 0.00 83
20260507050704 15 260 0.0 0.0 0.00 0.00 0.00 83
20260507050502 15 260 0.0 0.0 0.00 0.00 0.00 83
20260507050300 15 260 0.0 0.0 0.00 0.00 0.00 83
20260507050058 15 260 0.0 0.0 0.00 0.00 0.00 82
20260507045855 15 260 0.0 0.0 0.00 0.00 0.00 82
20260507045655 15 260 0.0 0.0 0.00 0.00 0.00 82
20260507045452 15 260 0.0 0.0 0.00 0.00 0.00 82
20260507045250 15 260 0.0 0.0 0.00 0.00 0.00 82
20260507045048 15 260 0.0 0.0 0.00 0.00 0.00 81
20260507044847 15 260 0.0 0.0 0.00 0.00 0.00 81
20260507044443 15 260 0.0 0.0 0.00 0.00 0.00 81
20260507044241 15 260 0.0 0.0 0.00 0.00 0.00 81
20260507043635 15 260 0.0 0.0 0.00 0.00 0.00 80
20260507043434 15 260 0.0 0.0 0.00 0.00 0.00 80
20260507043030 15 260 0.0 0.0 0.00 0.00 0.00 80
20260507042828 15 260 0.0 0.0 0.00 0.00 0.00 80
20260507042626 15 260 0.0 0.0 0.00 0.00 0.00 79
20260507042422 15 260 0.0 0.0 0.00 0.00 0.00 79
20260507042222 15 260 0.0 0.0 0.00 0.00 0.00 79
20260507042020 15 260 0.0 0.0 0.00 0.00 0.00 79
20260507041818 15 260 0.0 3.2 0.00 0.00 0.00 79
20260507041616 15 260 0.0 3.2 0.00 0.00 0.00 79
20260507041414 15 260 0.0 3.2 0.00 0.00 0.00 79
20260507041213 15 260 0.0 3.2 0.00 0.00 0.00 79
20260507041011 15 260 0.0 3.2 0.00 0.00 0.00 79
20260507040809 16 288 0.0 3.2 0.00 0.00 0.00 79
20260507040607 16 310 0.0 3.2 0.00 0.00 0.00 79
20260507040405 16 302 1.6 3.2 0.00 0.00 0.00 78
20260507040201 16 302 3.2 1.6 0.00 0.00 0.00 78
20260507040001 16 293 0.0 1.6 0.00 0.00 0.00 78
20260507035759 16 305 0.0 3.2 0.00 0.00 0.00 77
20260507035557 16 298 0.0 3.2 0.00 0.00 0.00 77
20260507035355 16 298 0.0 3.2 0.00 0.00 0.00 77
20260507034952 16 261 0.0 3.2 0.00 0.00 0.00 76
20260507034750 16 261 0.0 1.6 0.00 0.00 0.00 75
20260507034548 16 274 0.0 1.6 0.00 0.00 0.00 75
20260507034347 16 274 0.0 1.6 0.00 0.00 0.00 75
20260507033942 16 296 1.6 1.6 0.00 0.00 0.00 75
20260507033740 16 257 0.0 0.0 0.00 0.00 0.00 75
20260507033538 16 257 0.0 0.0 0.00 0.00 0.00 75
20260507033336 16 257 0.0 0.0 0.00 0.00 0.00 75
20260507033134 16 257 0.0 3.2 0.00 0.00 0.00 75
20260507032932 16 257 0.0 3.2 0.00 0.00 0.00 74
20260507032730 16 257 0.0 4.8 0.00 0.00 0.00 75
20260507032529 16 257 0.0 4.8 0.00 0.00 0.00 75
20260507032327 16 286 3.2 4.8 0.00 0.00 0.00 75
20260507032125 16 288 1.6 1.6 0.00 0.00 0.00 74
20260507031923 16 262 0.0 1.6 0.00 0.00 0.00 74
20260507031721 16 240 0.0 0.0 0.00 0.00 0.00 74
20260507031519 16 239 0.0 0.0 0.00 0.00 0.00 73
20260507031315 16 239 0.0 0.0 0.00 0.00 0.00 73
20260507031115 17 239 0.0 0.0 0.00 0.00 0.00 72
20260507030913 17 239 0.0 0.0 0.00 0.00 0.00 72
20260507030712 17 239 0.0 3.2 0.00 0.00 0.00 72
20260507030510 17 239 0.0 3.2 0.00 0.00 0.00 71
20260507025903 17 282 3.2 3.2 0.00 0.00 0.00 71
20260507025702 17 279 1.6 0.0 0.00 0.00 0.00 71
20260507025055 17 253 0.0 0.0 0.00 0.00 0.00 69
20260507024854 17 253 0.0 0.0 0.00 0.00 0.00 68
20260507024651 17 253 0.0 0.0 0.00 0.00 0.00 68
20260507024249 18 253 0.0 0.0 0.00 0.00 0.00 67
20260507024046 18 253 0.0 0.0 0.00 0.00 0.00 67
20260507023845 18 253 0.0 0.0 0.00 0.00 0.00 67
20260507023441 18 253 0.0 6.4 0.00 0.00 0.00 67
20260507023239 18 253 0.0 9.7 0.00 0.00 0.00 67
20260507023037 18 284 3.2 9.7 0.00 0.00 0.00 67
20260507022432 18 274 6.4 9.7 0.00 0.00 0.00 66
20260507022028 18 293 6.4 11.3 0.00 0.00 0.00 65
20260507021624 18 286 6.4 9.7 0.00 0.00 0.00 64
20260507021422 18 300 4.8 9.7 0.00 0.00 0.00 63
20260507021220 18 275 6.4 11.3 0.00 0.00 0.00 63
20260507021018 18 289 6.4 11.3 0.00 0.00 0.00 63
20260507020816 18 272 8.0 12.9 0.00 0.00 0.00 62
20260507020615 18 281 3.2 12.9 0.00 0.00 0.00 62
20260507020412 18 303 4.8 12.9 0.00 0.00 0.00 62
20260507020211 18 274 9.7 12.9 0.00 0.00 0.00 62
20260507020009 18 278 9.7 12.9 0.00 0.00 0.00 62
20260507015805 19 265 11.3 12.9 0.00 0.00 0.00 62
20260507015603 19 267 8.0 12.9 0.00 0.00 0.00 62
20260507015401 18 278 9.7 12.9 0.00 0.00 0.00 61
20260507015159 19 274 11.3 11.3 0.00 0.00 0.00 60
20260507014957 19 307 4.8 11.3 0.00 0.00 0.00 61
20260507014757 19 254 8.0 9.7 0.00 0.00 0.00 60
20260507014555 19 270 8.0 9.7 0.00 0.00 0.00 61
20260507014353 19 279 4.8 9.7 0.00 0.00 0.00 60
20260507014151 19 246 4.8 16.1 0.00 0.00 0.00 61
20260507013948 19 277 8.0 16.1 0.00 0.00 0.00 61
20260507013748 19 278 8.0 14.5 0.00 0.00 0.00 60
20260507013546 19 279 6.4 14.5 0.00 0.00 0.00 59
20260507013344 19 271 12.9 14.5 0.00 0.00 0.00 59
20260507012940 20 309 4.8 14.5 0.00 0.00 0.00 59
20260507012738 20 268 3.2 16.1 0.00 0.00 0.00 59
20260507012537 20 230 4.8 16.1 0.00 0.00 0.00 59
20260507012333 20 222 6.4 16.1 0.00 0.00 0.00 59
20260507012132 19 246 11.3 19.3 0.00 0.00 0.00 58
20260507011931 20 295 8.0 19.3 0.00 0.00 0.00 59
20260507011729 19 279 11.3 16.1 0.00 0.00 0.00 59
20260507011325 20 284 9.7 16.1 0.00 0.00 0.00 57
20260507011121 20 265 11.3 14.5 0.00 0.00 0.00 57
20260507010921 20 247 0.0 14.5 0.00 0.00 0.00 57
20260507010719 20 265 8.0 20.9 0.00 0.00 0.00 57
20260507010611 20 248 3.2 20.9 0.00 0.00 0.00 57
20260507010517 20 248 3.2 20.9 0.00 0.00 0.00 57
20260507010315 20 241 9.7 19.3 0.00 0.00 0.00 58
20260507005912 20 275 9.7 19.3 0.00 0.00 0.00 57
20260507005710 20 253 11.3 20.9 0.00 0.00 0.00 57
20260507005507 20 257 9.7 20.9 0.00 0.00 0.00 57
20260507005306 20 275 11.3 20.9 0.00 0.00 0.00 58
20260507005104 20 275 11.3 20.9 0.00 0.00 0.00 58
20260507004902 20 274 12.9 20.9 0.00 0.00 0.00 57
20260507004700 20 251 17.7 20.9 0.00 0.00 0.00 57
20260507004458 20 250 4.8 20.9 0.00 0.00 0.00 58
20260507004256 20 272 14.5 19.3 0.00 0.00 0.00 58
20260507004055 20 253 6.4 19.3 0.00 0.00 0.00 58
20260507003851 20 258 11.3 19.3 0.00 0.00 0.00 58
20260507003449 20 244 12.9 19.3 0.00 0.00 0.00 58
20260507003245 20 284 11.3 20.9 0.00 0.00 0.00 57
20260507003045 20 267 16.1 20.9 0.00 0.00 0.00 56
20260507002843 20 293 4.8 20.9 0.00 0.00 0.00 57
20260507002641 20 275 3.2 20.9 0.00 0.00 0.00 58
20260507002437 20 257 11.3 20.9 0.00 0.00 0.00 57
20260507002035 21 258 11.3 22.5 0.00 0.00 0.00 56
20260507001833 20 272 14.5 22.5 0.00 0.00 0.00 56
20260507001631 20 264 9.7 22.5 0.00 0.00 0.00 56
20260507001228 20 244 4.8 25.7 0.00 0.00 0.00 57
20260507000823 20 255 11.3 25.7 0.00 0.00 0.00 57
20260507000620 20 279 16.1 20.9 0.00 0.00 0.00 56
20260507000420 21 260 14.5 20.9 0.00 0.00 0.00 56
20260507000216 21 255 3.2 20.9 0.00 0.00 0.00 57
20260507000014 20 251 14.5 20.9 0.00 0.00 0.00 56
20260506235814 20 268 11.3 17.7 0.00 0.00 0.00 56
20260506235612 21 258 12.9 17.7 0.00 0.00 0.00 55
20260506235410 21 255 14.5 17.7 0.00 0.00 0.00 56
20260506235208 21 277 14.5 24.1 0.00 0.00 0.00 55
20260506235006 21 247 4.8 24.1 0.00 0.00 0.00 55
20260506234602 21 270 14.5 24.1 0.00 0.00 0.00 56
20260506234400 21 272 12.9 24.1 0.00 0.00 0.00 55
20260506234158 21 261 16.1 24.1 0.00 0.00 0.00 56
20260506233552 21 264 4.8 22.5 0.00 0.00 0.00 57
20260506233350 21 230 12.9 22.5 0.00 0.00 0.00 57
20260506233148 21 268 12.9 22.5 0.00 0.00 0.00 57
20260506232946 21 248 14.5 22.5 0.00 0.00 0.00 57
20260506232743 21 281 11.3 22.5 0.00 0.00 0.00 55
20260506232543 21 244 12.9 22.5 0.00 0.00 0.00 57
20260506232341 21 267 14.5 22.5 0.00 0.00 0.00 56
20260506231936 21 272 12.9 17.7 0.00 0.00 0.00 54
20260506231734 22 277 3.2 16.1 0.00 0.00 0.00 55
20260506231531 22 305 1.6 16.1 0.00 0.00 0.00 55
20260506231331 22 246 11.3 16.1 0.00 0.00 0.00 55
20260506230927 21 268 4.8 25.7 0.00 0.00 0.00 56
20260506230724 21 277 9.7 27.4 0.00 0.00 0.00 56
20260506230523 21 248 8.0 27.4 0.00 0.00 0.00 56
20260506230319 22 254 25.7 24.1 0.00 0.00 0.00 54
20260506230119 21 71 1.6 24.1 0.00 0.00 0.00 56
20260506225917 21 198 4.8 24.1 0.00 0.00 0.00 55
20260506225713 21 244 6.4 20.9 0.00 0.00 0.00 56
20260506225513 21 274 12.9 20.9 0.00 0.00 0.00 55
20260506225311 22 270 12.9 25.7 0.00 0.00 0.00 55
20260506225109 21 271 11.3 25.7 0.00 0.00 0.00 55
20260506224705 22 270 11.3 19.3 0.00 0.00 0.00 54
20260506224301 22 240 1.6 22.5 0.00 0.00 0.00 54
20260506224059 22 282 3.2 22.5 0.00 0.00 0.00 54
20260506223857 21 261 9.7 22.5 0.00 0.00 0.00 53
20260506223655 22 255 16.1 22.5 0.00 0.00 0.00 53
20260506223251 22 219 8.0 20.9 0.00 0.00 0.00 52
20260506223050 22 248 4.8 20.9 0.00 0.00 0.00 52
20260506222847 22 250 20.9 20.9 0.00 0.00 0.00 52
20260506222443 22 198 4.8 22.5 0.00 0.00 0.00 51
20260506222240 22 241 3.2 24.1 0.00 0.00 0.00 52
20260506222038 22 281 4.8 24.1 0.00 0.00 0.00 52
20260506221837 22 248 14.5 24.1 0.00 0.00 0.00 51
20260506221434 22 264 11.3 22.5 0.00 0.00 0.00 51
20260506221232 22 271 12.9 24.1 0.00 0.00 0.00 51
20260506221030 22 285 3.2 24.1 0.00 0.00 0.00 51
20260506220828 22 267 17.7 24.1 0.00 0.00 0.00 51
20260506220222 22 246 17.7 20.9 0.00 0.00 0.00 51
20260506220020 22 261 11.3 20.9 0.00 0.00 0.00 51
20260506215818 22 274 11.3 20.9 0.00 0.00 0.00 52
20260506215616 22 289 8.0 20.9 0.00 0.00 0.00 50
20260506215414 22 261 17.7 20.9 0.00 0.00 0.00 50
20260506215212 22 246 8.0 20.9 0.00 0.00 0.00 51
20260506215010 22 261 11.3 20.9 0.00 0.00 0.00 52
20260506214806 22 284 11.3 30.6 0.00 0.00 0.00 53
20260506214606 22 246 12.9 30.6 0.00 0.00 0.00 52
20260506214404 21 265 12.9 30.6 0.00 0.00 0.00 52
20260506214202 21 282 11.3 20.9 0.00 0.00 0.00 51
20260506214001 22 293 14.5 20.9 0.00 0.00 0.00 52
20260506213758 22 233 8.0 20.9 0.00 0.00 0.00 52
20260506213557 22 268 9.7 20.9 0.00 0.00 0.00 52
20260506213355 22 257 14.5 20.9 0.00 0.00 0.00 52
20260506213152 21 289 9.7 20.9 0.00 0.00 0.00 53
20260506212749 22 247 17.7 24.1 0.00 0.00 0.00 51
20260506212547 22 253 9.7 24.1 0.00 0.00 0.00 51
20260506212345 22 277 9.7 24.1 0.00 0.00 0.00 51
20260506211739 22 305 1.6 20.9 0.00 0.00 0.00 53
20260506211537 21 260 14.5 20.9 0.00 0.00 0.00 53
20260506211335 21 286 12.9 20.9 0.00 0.00 0.00 52
20260506211133 22 243 12.9 20.9 0.00 0.00 0.00 53
20260506210931 22 275 1.6 20.9 0.00 0.00 0.00 54
20260506210729 22 264 6.4 20.9 0.00 0.00 0.00 54
20260506210526 21 282 14.5 20.9 0.00 0.00 0.00 54
20260506210326 21 246 11.3 20.9 0.00 0.00 0.00 55
20260506205921 21 303 11.3 20.9 0.00 0.00 0.00 52
20260506205719 22 248 6.4 20.9 0.00 0.00 0.00 53
20260506205515 22 282 4.8 20.9 0.00 0.00 0.00 54
20260506205315 22 250 14.5 20.9 0.00 0.00 0.00 53
20260506205113 22 300 9.7 20.9 0.00 0.00 0.00 52
20260506204911 22 250 3.2 20.9 0.00 0.00 0.00 54
20260506204507 21 289 3.2 20.9 0.00 0.00 0.00 54
20260506204306 21 272 12.9 25.7 0.00 0.00 0.00 54
20260506204104 21 167 1.6 25.7 0.00 0.00 0.00 55
20260506203902 21 262 14.5 25.7 0.00 0.00 0.00 53
20260506203700 21 246 11.3 24.1 0.00 0.00 0.00 55
20260506203457 21 296 14.5 24.1 0.00 0.00 0.00 53
20260506203255 21 253 12.9 19.3 0.00 0.00 0.00 53
20260506203054 22 265 9.7 19.3 0.00 0.00 0.00 51
20260506202851 22 271 17.7 19.3 0.00 0.00 0.00 49
20260506202650 22 270 11.3 19.3 0.00 0.00 0.00 49
20260506202447 23 282 8.0 19.3 0.00 0.00 0.00 50
20260506202246 22 293 4.8 16.1 0.00 0.00 0.00 50
20260506202044 22 264 8.0 16.1 0.00 0.00 0.00 50
20260506201840 22 278 3.2 16.1 0.00 0.00 0.00 51
20260506201640 22 271 4.8 17.7 0.00 0.00 0.00 50
20260506201438 22 202 1.6 17.7 0.00 0.00 0.00 49
20260506201236 22 278 9.7 14.5 0.00 0.00 0.00 49
20260506201034 22 264 9.7 14.5 0.00 0.00 0.00 48
20260506200832 22 281 9.7 14.5 0.00 0.00 0.00 49
20260506200226 22 239 4.8 19.3 0.00 0.00 0.00 51
20260506200024 22 229 3.2 19.3 0.00 0.00 0.00 51
20260506195822 21 281 12.9 19.3 0.00 0.00 0.00 48
20260506195620 22 267 11.3 20.9 0.00 0.00 0.00 50
20260506195217 21 180 6.4 16.1 0.00 0.00 0.00 51
20260506195015 21 257 17.7 16.1 0.00 0.00 0.00 51
20260506194813 21 279 14.5 17.7 0.00 0.00 0.00 50
20260506194611 21 275 11.3 17.7 0.00 0.00 0.00 49
20260506194410 21 271 12.9 17.7 0.00 0.00 0.00 48
20260506194206 21 296 8.0 20.9 0.00 0.00 0.00 49
20260506194005 21 281 6.4 20.9 0.00 0.00 0.00 48
20260506193803 21 260 9.7 17.7 0.00 0.00 0.00 48
20260506193600 21 286 19.3 17.7 0.00 0.00 0.00 48
20260506193357 21 251 11.3 17.7 0.00 0.00 0.00 48
20260506193157 21 272 4.8 17.7 0.00 0.00 0.00 49
20260506192958 21 284 11.3 17.7 0.00 0.00 0.00 48
20260506192753 21 275 12.9 19.3 0.00 0.00 0.00 48
20260506192551 21 279 12.9 19.3 0.00 0.00 0.00 48
20260506192349 21 275 6.4 19.3 0.00 0.00 0.00 48
20260506192147 21 296 9.7 20.9 0.00 0.00 0.00 49
20260506191945 21 271 9.7 20.9 0.00 0.00 0.00 48
20260506191743 21 272 9.7 11.3 0.00 0.00 0.00 48
20260506191541 21 257 3.2 11.3 0.00 0.00 0.00 46
20260506191340 21 268 4.8 11.3 0.00 0.00 0.00 48
20260506191137 21 264 4.8 17.7 0.00 0.00 0.00 49
20260506190935 21 267 1.6 17.7 0.00 0.00 0.00 49
20260506190733 21 258 8.0 19.3 0.00 0.00 0.00 49
20260506190531 21 278 11.3 19.3 0.00 0.00 0.00 49
20260506190329 21 255 8.0 19.3 0.00 0.00 0.00 50
20260506190128 21 267 16.1 16.1 0.00 0.00 0.00 50
20260506185926 20 258 6.4 16.1 0.00 0.00 0.00 50
20260506185522 21 254 14.5 20.9 0.00 0.00 0.00 50
20260506185118 21 255 8.0 17.7 0.00 0.00 0.00 51
20260506184916 20 241 6.4 17.7 0.00 0.00 0.00 51
20260506184714 21 274 14.5 20.9 0.00 0.00 0.00 51
20260506184512 20 195 6.4 20.9 0.00 0.00 0.00 53
20260506184108 20 285 8.0 19.3 0.00 0.00 0.00 51
20260506183704 20 278 6.4 14.5 0.00 0.00 0.00 53
20260506183503 20 282 11.3 14.5 0.00 0.00 0.00 50
20260506183300 20 302 3.2 24.1 0.00 0.00 0.00 52
20260506182655 20 284 11.3 20.9 0.00 0.00 0.00 52
20260506182452 20 267 17.7 20.9 0.00 0.00 0.00 53
20260506182048 20 244 11.3 17.7 0.00 0.00 0.00 54
20260506181847 20 281 9.7 17.7 0.00 0.00 0.00 53
20260506181645 20 265 9.7 19.3 0.00 0.00 0.00 54
20260506181443 19 284 9.7 19.3 0.00 0.00 0.00 52
20260506181241 20 258 14.5 17.7 0.00 0.00 0.00 52
20260506181040 20 247 12.9 17.7 0.00 0.00 0.00 53
20260506180837 20 277 4.8 17.7 0.00 0.00 0.00 53
20260506180636 20 274 12.9 17.7 0.00 0.00 0.00 52
20260506180434 20 272 8.0 17.7 0.00 0.00 0.00 51
20260506180232 20 257 16.1 11.3 0.00 0.00 0.00 52
20260506180030 20 255 1.6 11.3 0.00 0.00 0.00 55
20260506175828 19 248 1.6 11.3 0.00 0.00 0.00 55
20260506175424 19 296 4.8 16.1 0.00 0.00 0.00 54
20260506175222 18 293 8.0 17.7 0.00 0.00 0.00 54
20260506175020 20 282 12.9 17.7 0.00 0.00 0.00 53
20260506174819 19 222 0.0 16.1 0.00 0.00 0.00 54
20260506174415 19 275 4.8 16.1 0.00 0.00 0.00 56
20260506174213 19 281 12.9 16.1 0.00 0.00 0.00 56
20260506174011 18 237 1.6 16.1 0.00 0.00 0.00 55
20260506173809 19 277 8.0 14.5 0.00 0.00 0.00 55
20260506173607 18 272 9.7 14.5 0.00 0.00 0.00 55
20260506173405 18 271 12.9 14.5 0.00 0.00 0.00 56
20260506173203 18 272 4.8 14.5 0.00 0.00 0.00 56
20260506173002 18 285 4.8 14.5 0.00 0.00 0.00 55
20260506172800 18 285 11.3 17.7 0.00 0.00 0.00 55
20260506172557 18 305 6.4 17.7 0.00 0.00 0.00 56
20260506172356 18 282 6.4 17.7 0.00 0.00 0.00 56
20260506171954 18 277 12.9 19.3 0.00 0.00 0.00 56
20260506171750 18 302 6.4 12.9 0.00 0.00 0.00 57
20260506171548 18 293 9.7 12.9 0.00 0.00 0.00 57
20260506171346 18 300 3.2 12.9 0.00 0.00 0.00 57
20260506171144 18 271 3.2 19.3 0.00 0.00 0.00 57
20260506170943 18 289 6.4 19.3 0.00 0.00 0.00 57
20260506170741 18 292 12.9 14.5 0.00 0.00 0.00 58
20260506170539 18 262 8.0 14.5 0.00 0.00 0.00 58
20260506170336 18 282 12.9 14.5 0.00 0.00 0.00 59
20260506170135 18 253 6.4 17.7 0.00 0.00 0.00 60
20260506165933 18 215 0.0 17.7 0.00 0.00 0.00 61
20260506165731 17 288 8.0 16.1 0.00 0.00 0.00 60
20260506165529 18 261 16.1 16.1 0.00 0.00 0.00 59
20260506165327 18 270 14.5 16.1 0.00 0.00 0.00 59
20260506165125 18 272 12.9 16.1 0.00 0.00 0.00 60
20260506164924 17 282 6.4 16.1 0.00 0.00 0.00 60
20260506164721 17 282 8.0 16.1 0.00 0.00 0.00 61
20260506164520 17 264 8.0 16.1 0.00 0.00 0.00 62
20260506164318 17 274 11.3 16.1 0.00 0.00 0.00 62
20260506164116 17 288 6.4 16.1 0.00 0.00 0.00 62
20260506163914 17 275 12.9 16.1 0.00 0.00 0.00 61
20260506163712 17 275 8.0 14.5 0.00 0.00 0.00 61
20260506163510 17 296 8.0 14.5 0.00 0.00 0.00 60
20260506163106 17 268 9.7 14.5 0.00 0.00 0.00 61
20260506162702 17 288 8.0 14.5 0.00 0.00 0.00 61
20260506162259 17 302 8.0 9.7 0.00 0.00 0.00 62
20260506162057 17 210 0.0 9.7 0.00 0.00 0.00 62
20260506161855 17 264 3.2 9.7 0.00 0.00 0.00 63
20260506161450 17 274 6.4 9.7 0.00 0.00 0.00 61
20260506161249 17 257 6.4 3.2 0.00 0.00 0.00 60
20260506160845 17 234 0.0 3.2 0.00 0.00 0.00 60
20260506160442 17 184 0.0 4.8 0.00 0.00 0.00 60
20260506160240 17 292 3.2 3.2 0.00 0.00 0.00 59
20260506160038 17 254 0.0 3.2 0.00 0.00 0.00 58
20260506155836 17 116 0.0 3.2 0.00 0.00 0.00 62
20260506155432 17 217 1.6 3.2 0.00 0.00 0.00 59
20260506155230 17 196 0.0 4.8 0.00 0.00 0.00 60
20260506154826 17 164 3.2 4.8 0.00 0.00 0.00 61
20260506154624 17 143 3.2 6.4 0.00 0.00 0.00 65
20260506154422 17 118 3.2 6.4 0.00 0.00 0.00 63
20260506154019 16 71 1.6 6.4 0.00 0.00 0.00 65
20260506153413 16 136 0.0 4.8 0.00 0.00 0.00 68
20260506153211 15 80 0.0 4.8 0.00 0.00 0.00 69
20260506153009 15 229 1.6 4.8 0.00 0.00 0.00 68
20260506152807 15 222 1.6 0.0 0.00 0.00 0.00 71
20260506152605 15 198 0.0 0.0 0.00 0.00 0.00 71
20260506152403 15 84 0.0 0.0 0.00 0.00 0.00 72
20260506152201 15 84 0.0 0.0 0.00 0.00 0.00 72
20260506152000 15 84 0.0 0.0 0.00 0.00 0.00 74
20260506151556 15 84 0.0 0.0 0.00 0.00 0.00 73
20260506151354 15 84 0.0 0.0 0.00 0.00 0.00 73
20260506151152 15 84 0.0 0.0 0.00 0.00 0.00 73
20260506150949 15 84 0.0 0.0 0.00 0.00 0.00 73
20260506150748 15 84 0.0 1.6 0.00 0.00 0.00 72
20260506150546 15 84 0.0 1.6 0.00 0.00 0.00 73
20260506150344 15 84 0.0 1.6 0.00 0.00 0.00 73
20260506150143 14 142 1.6 3.2 0.00 0.00 0.00 74
20260506145941 14 59 0.0 3.2 0.00 0.00 0.00 75
20260506145335 13 112 1.6 4.8 0.00 0.00 0.00 76
20260506145133 13 109 0.0 4.8 0.00 0.00 0.00 76
20260506144929 13 112 3.2 4.8 0.00 0.00 0.00 77
20260506144729 13 137 1.6 3.2 0.00 0.00 0.00 76
20260506144527 13 78 0.0 3.2 0.00 0.00 0.00 78
20260506144324 13 105 1.6 3.2 0.00 0.00 0.00 78
20260506144123 13 82 0.0 1.6 0.00 0.00 0.00 78
20260506143921 13 84 0.0 1.6 0.00 0.00 0.00 79
20260506143720 12 101 0.0 3.2 0.00 0.00 0.00 80
20260506143518 12 101 0.0 3.2 0.00 0.00 0.00 80
20260506143316 12 101 0.0 4.8 0.00 0.00 0.00 81
20260506143114 12 109 0.0 4.8 0.00 0.00 0.00 80
20260506142912 12 90 1.6 4.8 0.00 0.00 0.00 81
20260506142710 12 126 3.2 4.8 0.00 0.00 0.00 81
20260506142306 12 82 1.6 4.8 0.00 0.00 0.00 82
20260506142104 12 63 0.0 4.8 0.00 0.00 0.00 82
20260506141902 12 54 0.0 4.8 0.00 0.00 0.00 82
20260506141700 12 95 3.2 6.4 0.00 0.00 0.00 83
20260506141457 11 129 1.6 6.4 0.00 0.00 0.00 84
20260506141257 11 113 1.6 4.8 0.00 0.00 0.00 84
20260506141054 11 91 4.8 4.8 0.00 0.00 0.00 85
20260506140853 11 102 3.2 4.8 0.00 0.00 0.00 85
20260506140449 11 63 0.0 3.2 0.00 0.00 0.00 86
20260506140248 11 74 0.0 6.4 0.00 0.00 0.00 87
20260506140045 11 97 3.2 6.4 0.00 0.00 0.00 87
20260506135843 11 80 1.6 6.4 0.00 0.00 0.00 88
20260506135641 10 73 1.6 4.8 0.00 0.00 0.00 88
20260506135439 10 94 3.2 4.8 0.00 0.00 0.00 88
20260506134632 10 116 6.4 6.4 0.00 0.00 0.00 89
20260506134428 10 106 3.2 6.4 0.00 0.00 0.00 89
20260506134228 10 111 4.8 6.4 0.00 0.00 0.00 89
20260506133824 10 104 4.8 6.4 0.00 0.00 0.00 90
20260506133421 10 75 0.0 3.2 0.00 0.00 0.00 90
20260506133219 10 77 3.2 4.8 0.00 0.00 0.00 90
20260506133017 10 82 1.6 4.8 0.00 0.00 0.00 90
20260506132613 9 81 1.6 6.4 0.00 0.00 0.00 91
20260506132411 9 94 1.6 6.4 0.00 0.00 0.00 91
20260506132209 9 105 3.2 0.0 0.00 0.00 0.00 91
20260506132007 9 59 0.0 0.0 0.00 0.00 0.00 91
20260506131805 9 59 0.0 0.0 0.00 0.00 0.00 91
20260506131603 9 59 0.0 0.0 0.00 0.00 0.00 91
20260506131401 9 59 0.0 0.0 0.00 0.00 0.00 91
20260506131159 9 59 0.0 0.0 0.00 0.00 0.00 90
20260506130957 9 59 0.0 0.0 0.00 0.00 0.00 90
20260506130756 9 59 0.0 0.0 0.00 0.00 0.00 90
20260506130150 9 59 0.0 0.0 0.00 0.00 0.00 91
20260506125948 9 59 0.0 0.0 0.00 0.00 0.00 90
20260506125746 9 59 0.0 0.0 0.00 0.00 0.00 91
20260506125542 9 59 0.0 0.0 0.00 0.00 0.00 91
20260506125341 9 59 0.0 0.0 0.00 0.00 0.00 91
20260506125141 9 59 0.0 0.0 0.00 0.00 0.00 91
20260506124736 9 59 0.0 3.2 0.00 0.00 0.00 91
20260506124535 9 59 0.0 3.2 0.00 0.00 0.00 91
20260506124333 9 59 0.0 3.2 0.00 0.00 0.00 91
20260506124131 9 88 1.6 3.2 0.00 0.00 0.00 91
20260506123929 9 63 0.0 3.2 0.00 0.00 0.00 91
20260506123727 9 104 3.2 3.2 0.00 0.00 0.00 91
20260506123525 9 77 0.0 3.2 0.00 0.00 0.00 91
20260506123323 9 77 0.0 3.2 0.00 0.00 0.00 91
20260506123121 9 77 0.0 3.2 0.00 0.00 0.00 91
20260506122920 9 77 0.0 3.2 0.00 0.00 0.00 91
20260506122717 9 77 0.0 0.0 0.00 0.00 0.00 91
20260506122516 9 71 0.0 0.0 0.00 0.00 0.00 91
20260506122314 9 71 0.0 0.0 0.00 0.00 0.00 91
20260506122112 9 71 0.0 0.0 0.00 0.00 0.00 91
20260506121910 9 71 0.0 0.0 0.00 0.00 0.00 91
20260506121708 9 71 0.0 0.0 0.00 0.00 0.00 91
20260506121506 9 71 0.0 0.0 0.00 0.00 0.00 91
20260506121304 9 71 0.0 0.0 0.00 0.00 0.00 91
20260506121102 9 71 0.0 0.0 0.00 0.00 0.00 91
20260506120900 9 71 0.0 0.0 0.00 0.00 0.00 91
20260506120657 9 71 0.0 0.0 0.00 0.00 0.00 91
20260506120457 9 71 0.0 0.0 0.00 0.00 0.00 91
20260506120255 9 71 0.0 0.0 0.00 0.00 0.00 91
20260506120053 9 71 0.0 0.0 0.00 0.00 0.00 91
20260506115851 9 71 0.0 0.0 0.00 0.00 0.00 91
20260506115647 9 71 0.0 0.0 0.00 0.00 0.00 91
20260506115447 9 71 0.0 0.0 0.00 0.00 0.00 91
20260506115245 9 71 0.0 0.0 0.00 0.00 0.00 91
20260506115043 10 71 0.0 0.0 0.00 0.00 0.00 91
20260506114841 9 71 0.0 0.0 0.00 0.00 0.00 91
20260506114437 9 71 0.0 0.0 0.00 0.00 0.00 91
20260506114034 10 71 0.0 0.0 0.00 0.00 0.00 90
20260506113628 10 71 0.0 0.0 0.00 0.00 0.00 90
20260506113427 10 71 0.0 0.0 0.00 0.00 0.00 90
20260506113226 10 71 0.0 0.0 0.00 0.00 0.00 90
20260506113024 10 71 0.0 0.0 0.00 0.00 0.00 90
20260506112822 10 71 0.0 0.0 0.00 0.00 0.00 91
20260506112620 10 71 0.0 0.0 0.00 0.00 0.00 90
20260506111813 10 71 0.0 3.2 0.00 0.00 0.00 91
20260506111611 10 71 0.0 3.2 0.00 0.00 0.00 91
20260506111207 10 71 0.0 4.8 0.00 0.00 0.00 91
20260506111005 10 99 1.6 4.8 0.00 0.00 0.00 91
20260506110803 10 109 4.8 4.8 0.00 0.00 0.00 91
20260506110602 10 106 1.6 4.8 0.00 0.00 0.00 91
20260506110158 10 102 3.2 0.0 0.00 0.00 0.00 92
20260506105956 10 91 1.6 0.0 0.00 0.00 0.00 92
20260506105350 10 82 0.0 0.0 0.00 0.00 0.00 92
20260506105148 10 82 0.0 3.2 0.00 0.00 0.00 92
20260506104742 10 95 1.6 4.8 0.00 0.00 0.00 92
20260506104542 10 98 1.6 4.8 0.00 0.00 0.00 92
20260506104340 10 98 1.6 4.8 0.00 0.00 0.00 92
20260506104138 10 109 3.2 0.0 0.00 0.00 0.00 92
20260506103937 10 70 0.0 0.0 0.00 0.00 0.00 92
20260506103531 10 70 0.0 0.0 0.00 0.00 0.00 92
20260506103331 10 70 0.0 0.0 0.00 0.00 0.00 92
20260506103129 10 70 0.0 0.0 0.00 0.00 0.00 92
20260506102927 10 70 0.0 0.0 0.00 0.00 0.00 92
20260506102523 10 70 0.0 0.0 0.00 0.00 0.00 92
20260506102321 10 70 0.0 3.2 0.00 0.00 0.00 92
20260506102120 10 70 0.0 3.2 0.00 0.00 0.00 92
20260506101918 10 70 0.0 3.2 0.00 0.00 0.00 92
20260506101715 9 70 0.0 4.8 0.00 0.00 0.00 92
20260506101514 9 77 0.0 4.8 0.00 0.00 0.00 92
20260506101312 9 105 3.2 0.0 0.00 0.00 0.00 92
20260506101110 9 98 1.6 0.0 0.00 0.00 0.00 92
20260506100908 10 75 0.0 0.0 0.00 0.00 0.00 92
20260506100706 9 75 0.0 0.0 0.00 0.00 0.00 92
20260506100502 9 75 0.0 0.0 0.00 0.00 0.00 92
20260506100302 9 75 0.0 0.0 0.00 0.00 0.00 91
20260506095859 10 75 0.0 0.0 0.00 0.00 0.00 90
20260506095656 10 75 0.0 0.0 0.00 0.00 0.00 90
20260506095455 10 75 0.0 0.0 0.00 0.00 0.00 90
20260506095253 10 75 0.0 0.0 0.00 0.00 0.00 90
20260506095051 10 75 0.0 0.0 0.00 0.00 0.00 90
20260506094849 10 75 0.0 0.0 0.00 0.00 0.00 90
20260506094647 10 75 0.0 0.0 0.00 0.00 0.00 90
20260506094445 10 75 0.0 0.0 0.00 0.00 0.00 90
20260506094243 10 75 0.0 0.0 0.00 0.00 0.00 90
20260506094041 10 75 0.0 0.0 0.00 0.00 0.00 90
20260506093840 10 75 0.0 0.0 0.00 0.00 0.00 90
20260506093638 10 75 0.0 0.0 0.00 0.00 0.00 90
20260506093436 10 75 0.0 0.0 0.00 0.00 0.00 90
20260506093232 10 75 0.0 0.0 0.00 0.00 0.00 90
20260506093032 10 75 0.0 0.0 0.00 0.00 0.00 90
20260506092626 10 75 0.0 0.0 0.00 0.00 0.00 90
20260506092224 10 75 0.0 0.0 0.00 0.00 0.00 90
20260506092022 10 75 0.0 0.0 0.00 0.00 0.00 90
20260506091819 10 75 0.0 0.0 0.00 0.00 0.00 90
20260506091617 10 75 0.0 0.0 0.00 0.00 0.00 90
20260506091416 10 75 0.0 0.0 0.00 0.00 0.00 90
20260506091215 10 75 0.0 0.0 0.00 0.00 0.00 90
20260506091013 10 75 0.0 0.0 0.00 0.00 0.00 90
20260506090811 10 75 0.0 0.0 0.00 0.00 0.00 90
20260506090609 10 75 0.0 0.0 0.00 0.00 0.00 90
20260506090407 10 75 0.0 0.0 0.00 0.00 0.00 90
20260506090205 10 75 0.0 3.2 0.00 0.00 0.00 90
20260506090003 10 75 0.0 3.2 0.00 0.00 0.00 90
20260506085801 10 75 0.0 3.2 0.00 0.00 0.00 90
20260506085559 10 75 0.0 3.2 0.00 0.00 0.00 90
20260506085358 10 84 1.6 3.2 0.00 0.00 0.00 90
20260506085156 10 75 0.0 0.0 0.00 0.00 0.00 90
20260506084751 11 66 0.0 0.0 0.00 0.00 0.00 90
20260506084550 11 66 0.0 0.0 0.00 0.00 0.00 90
20260506084146 11 66 0.0 0.0 0.00 0.00 0.00 90
20260506083944 11 66 0.0 0.0 0.00 0.00 0.00 90
20260506083742 11 66 0.0 0.0 0.00 0.00 0.00 90
20260506083540 10 66 0.0 0.0 0.00 0.00 0.00 90
20260506083137 11 66 0.0 0.0 0.00 0.00 0.00 90
20260506082934 11 66 0.0 0.0 0.00 0.00 0.00 90
20260506082733 11 66 0.0 0.0 0.00 0.00 0.00 90
20260506082531 11 66 0.0 0.0 0.00 0.00 0.00 90
20260506082330 11 66 0.0 0.0 0.00 0.00 0.00 90
20260506082127 11 66 0.0 0.0 0.00 0.00 0.00 90
20260506081723 11 66 0.0 0.0 0.00 0.00 0.00 90
20260506081521 11 66 0.0 0.0 0.00 0.00 0.00 89
20260506081319 11 66 0.0 0.0 0.00 0.00 0.00 90
20260506081118 11 66 0.0 0.0 0.00 0.00 0.00 90
20260506080916 11 66 0.0 0.0 0.00 0.00 0.00 90
20260506080654 11 66 0.0 0.0 0.00 0.00 0.00 90
20260506080512 11 66 0.0 0.0 0.00 0.00 0.00 90
20260506080310 11 66 0.0 4.8 0.00 0.00 0.00 90
20260506080108 11 66 0.0 4.8 0.00 0.00 0.00 90
20260506073443 11 56 0.0 0.0 0.00 0.00 0.00 91
20260506073241 11 56 0.0 0.0 0.00 0.00 0.00 91
20260506073039 11 56 0.0 0.0 0.00 0.00 0.00 91
20260506072838 11 56 0.0 0.0 0.00 0.00 0.00 91
20260506072635 11 56 0.0 0.0 0.00 0.00 0.00 91
20260506072230 11 56 0.0 0.0 0.00 0.00 0.00 91
20260506072030 11 56 0.0 0.0 0.00 0.00 0.00 90
20260506071828 11 56 0.0 0.0 0.00 0.00 0.00 91
20260506071626 11 56 0.0 0.0 0.00 0.00 0.00 91
20260506071424 11 56 0.0 0.0 0.00 0.00 0.00 90
20260506071222 11 56 0.0 1.6 0.00 0.00 0.00 90
20260506071020 11 56 0.0 1.6 0.00 0.00 0.00 90
20260506070820 11 56 0.0 3.2 0.00 0.00 0.00 90
20260506070617 11 61 1.6 3.2 0.00 0.00 0.00 90
20260506070415 11 63 0.0 3.2 0.00 0.00 0.00 90
20260506070213 11 82 1.6 0.0 0.00 0.00 0.00 90
20260506062336 11 8 0.0 0.0 0.00 0.00 0.00 89
20260506062135 11 8 0.0 0.0 0.00 0.00 0.00 89
20260506061933 11 8 0.0 0.0 0.00 0.00 0.00 89
20260506061731 11 8 0.0 0.0 0.00 0.00 0.00 89
20260506061529 11 8 0.0 0.0 0.00 0.00 0.00 89
20260506061327 11 8 0.0 0.0 0.00 0.00 0.00 89
20260506061125 11 8 0.0 0.0 0.00 0.00 0.00 89
20260506060923 11 8 0.0 0.0 0.00 0.00 0.00 89
20260506060721 11 8 0.0 0.0 0.00 0.00 0.00 89
20260506060519 11 8 0.0 0.0 0.00 0.00 0.00 88
20260506060115 11 8 0.0 0.0 0.00 0.00 0.00 88